Regional Weather Roundup
Issued by NWS

Home | Current Version | Previous Version | Graphics & Text | Print | Product List | Glossary On
Versions: 1 2 3 4 5 6 7 8 9 10 11 12 13 14 15 16 17 18 19 20 21 22 23 24 25 26 27 28 29 30 31 32 33 34 35 36 37 38 39 40 41 42 43 44 45 46 47 48 49 50
125
ASUS45 KPSR 260510
RWRAZ

ARIZONA HOURLY REGIONAL WEATHER ROUNDUP
NATIONAL WEATHER SERVICE PHOENIX AZ
1000 PM MST SAT MAR 25 2017

NOTE: FAIR INDICATES FEW OR NO CLOUDS BELOW 12,000 FEET WITH NO
SIGNIFICANT WEATHER AND/OR OBSTRUCTIONS TO VISIBILITY.

AZZ001>003-036-260600-
NORTHWEST ARIZONA

CITY           SKY/WX    TMP DP  RH WIND       PRES   REMARKS
BULLHEAD CITY  CLEAR     72  36  26 N13       29.89S
KINGMAN        MOCLDY    50  28  42 E6        30.00R
$$

AZZ004>008-015-016-018-260600-
NORTH CENTRAL ARIZONA

CITY           SKY/WX    TMP DP  RH WIND       PRES   REMARKS
GRAND CANYON   CLEAR     38  29  70 W8        30.02S WCI  32
WILLIAMS       PTCLDY    39  30  70 W5        30.05R
PRESCOTT       CLEAR     47  29  49 SW5       30.02R
FLAGSTAFF      PTCLDY    39  30  70 W7        30.03R WCI  34
PAYSON         CLEAR     48  30  49 CALM      30.03S
PAGE           CLOUDY    52  39  61 W10G16    29.93S
$$

AZZ009>014-017-260600-
NORTHEAST ARIZONA

CITY           SKY/WX    TMP DP  RH WIND       PRES   REMARKS
WINSLOW        PTCLDY    42  29  59 SW6       29.98S
SAINT JOHNS    CLEAR     40  30  67 S5        30.00F
WINDOW ROCK    PTCLDY    35  31  85 CALM      30.00F
SHOW LOW       CLEAR     37  25  60 S7        30.04F WCI  32
$$

AZZ023-260600-
GREATER PHOENIX AREA

CITY           SKY/WX    TMP DP  RH WIND       PRES   REMARKS
PHOENIX        CLEAR     70  33  25 SW5       29.86S
BUCKEYE        CLEAR     63  30  29 N7        29.88S
LUKE AFB       CLEAR     63  33  32 N9        29.86S
DEER VALLEY    CLEAR     66  33  29 NW7       29.87S
SCOTTSDALE     CLEAR     68  32  26 N5        29.89S
MESA-GATEWAY   PTCLDY    64  30  27 CALM      29.89S
$$

AZZ027-028-260600-
SOUTHWEST MARICOPA COUNTY AND PINAL COUNTY

CITY           SKY/WX    TMP DP  RH WIND       PRES   REMARKS
CASA GRANDE    NOT AVBL
GILA BEND      FAIR      67  32  27 NE5       29.88S
$$

AZZ503-504-507>509-260600-
SOUTHEAST ARIZONA

CITY           SKY/WX    TMP DP  RH WIND       PRES   REMARKS
TUCSON         CLOUDY    69  26  20 NW8       29.96R
DAVIS-MONTHAN  MOCLDY    67  26  21 NW12      29.95R
NOGALES        CLOUDY    62  29  28 W6        30.00S
SIERRA VISTA   MOCLDY    56  26  32 W9        30.03S
DOUGLAS        CLOUDY    61  22  22 W10       29.98S
SAFFORD        MOCLDY    60  29  30 W10       29.92R
$$

AZZ020-021-025-026-031-260600-
SOUTHWEST ARIZONA

CITY           SKY/WX    TMP DP  RH WIND       PRES   REMARKS
YUMA           CLEAR     66  43  43 W7        29.90R
$$

CAZ031-033-041-043-047-048-061-260600-
SOUTHERN CALIFORNIA

CITY           SKY/WX    TMP DP  RH WIND       PRES   REMARKS
DOWNTOWN L.A.  CLEAR     59  54  83 CALM      30.04S
L.A. AIRPORT   PTCLDY    58  54  86 SW10      30.05S
SAN DIEGO      MOCLDY    62  54  74 NW6       30.08R
BURBANK        CLEAR     58  50  75 CALM      30.03F
ONTARIO        MOCLDY    57  52  83 W8        30.05R
RIVERSIDE      CLEAR     57  53  86 W7        30.06R
PALM SPRINGS   CLEAR     69  47  45 NW16G23   29.94R
EL CENTRO NAS  CLEAR     66  43  43 W15       29.93R
IMPERIAL       CLEAR     65  46  50 W13       29.90R
BLYTHE         CLEAR     69  38  32 W7        29.87S
NEEDLES        PTCLDY    71  39  31 N9        29.89R
$$

NVZ020-UTZ003-260600-
SOUTHERN NEVADA-UTAH

CITY           SKY/WX    TMP DP  RH WIND       PRES   REMARKS
LAS VEGAS      PTCLDY    63  35  35 CALM      29.95S
SALT LAKE CITY PTCLDY    41  38  89 SW3       30.03S
$$

NMZ009-TXZ055-260600-
NEW MEXICO-WEST TEXAS

CITY           SKY/WX    TMP DP  RH WIND       PRES   REMARKS
ALBUQUERQUE    PTCLDY    54  27  35 W24G36    29.93R
EL PASO        PTCLDY    74   8   8 SW22G33   29.86R
$$


........................KEY........................
SKY/WX - SKY CONDITION/WEATHER
TMP    - TEMPERATURE IN FAHRENHEIT
DP     - DEW POINT IN FAHRENHEIT
RH     - RELATIVE HUMIDITY IN PERCENT
WIND   - DIRECTION AND SPEED IN MILES PER HOUR (MPH)
VRB    - VARIABLE WIND DIRECTION
PRES   - MEAN SEA LEVEL PRESSURE IN INCHES OF MERCURY
         F - FALLING PRESSURE   R - RISING PRESSURE
         S - STEADY PRESSURE
VSB    - VISIBILITY IN MILES
HX     - HEAT INDEX IN FAHRENHEIT
WCI    - WIND CHILL INDEX IN FAHRENHEIT
TC     - TEMPERATURE IN CELSIUS WHICH IS ALSO KNOWN AS
         TEMPERATURE IN CENTIGRADE
AFB    - AIR FORCE BASE
         LUKE AFB IS LUKE AIR FORCE BASE
         DAVIS-MONTHAN IS DAVIS-MONTHAN AIR FORCE BASE
NAS    - NAVAL AIR STATION
         EL CENTRO NAS IS EL CENTRO NAVAL AIR STATION
N/A    - NOT AVAILABLE





USA.gov is the U.S. government's official web portal to all federal, state and local government web resources and services.